{"data":{"norad_id":57472,"intl_designator":"2023-107R","name":"STARLINK-30204","alt_names":[],"object_type":"PAYLOAD","status":"ACTIVE","operator":null,"country":"US","launch_date":"2023-07-28","launch_site_code":"AFETR","launch_vehicle":null,"mission":null,"orbit_class":"UNKNOWN","rcs_meters":null,"size_class":null,"mass_kg":null,"dimensions":null,"purposes":["comms"],"wikipedia_slug":null,"has_3d_model":false,"image_url":null,"decayed_at":null,"tle_current":{"epoch":"2026-09-20T10:51:44.799840Z","epoch_age_seconds":131777,"freshness":"FRESH","line1":"1 57472U 23107R   26263.45260185  .00000124  00000+0  14019-4 0  9993","line2":"2 57472  42.9997 316.1774 0000963 285.7124  74.3622 15.27582641174932","mean_motion":15.27582641,"eccentricity":9.63e-5,"inclination_deg":42.9997,"raan_deg":316.1774,"arg_perigee_deg":285.7124,"mean_anomaly_deg":74.3622,"bstar":1.4019e-5,"rev_number":17493,"period_min":94.266585738192,"perigee_km":482.38045648745,"apogee_km":483.70191940645,"semimajor_km":6861.178187947,"source":"CELESTRAK","updated_at":"2026-09-21T09:00:33.631050Z"}}}